Other Surface Observations
Issued by NWS Tucson, AZ

Home | Current Version | Previous Version | Text Only | Print | Product List | Glossary On
Versions: 1 2 3 4 5 6 7 8 9 10 11 12 13 14 15 16 17 18 19 20 21 22 23 24 25 26 27 28 29 30 31 32 33 34 35 36 37 38 39 40 41 42 43 44 45 46 47 48 49 50
000
SXUS55 KTWC 211815
OSOTWC

WEATHER ROUNDUP FOR SOUTHEAST ARIZONA
NATIONAL WEATHER SERVICE TUCSON AZ
1115 AM MST FRI NOV 21 2014

AZZ504>506-514-211915-
LOCATION       SKY/WX    TMP DP  RH WIND       PRES   REMARKS
TUCSON         CLOUDY    61  17  18 SE6       29.97F
DAVIS-MONTHAN  CLOUDY    61  20  20 S3        29.95F
CHILDRENS PARK N/A       53  24  32 SE4               PIMA CO DEQ
ALVERNON/22ND  N/A      N/A N/A N/A N/A               PIMA CO DEQ
CHERRY/GLENN   N/A      N/A N/A N/A N/A               PIMA CO DEQ
TANGERINE      N/A       55 N/A N/A E5                PIMA CO DEQ
CONTL RANCH    N/A       54  22  29 E6                PIMA CO DEQ
GRANT/1ST      N/A       55  22  27 S3                PIMA CO DEQ
CRAYCROFT/22ND N/A      N/A N/A N/A N/A               PIMA CO DEQ
GOLFLINKS/KOLB N/A      N/A N/A N/A N/A               PIMA CO DEQ
AJO/12TH       N/A       55  18  23 S9                PIMA CO DEQ
SAGUARO EAST   N/A      N/A N/A N/A N/A               PIMA CO DEQ
FAIRGROUNDS    N/A       56 N/A N/A SE12              PIMA CO DEQ
SAGUARO        N/A       57  26  30 W3                *SABINO CYN
SAN CARLOS     N/A       47  19  33 S2                *SAN CARLOS
GREEN VALLEY   N/A       56  18  22 S4                PIMA CO DEQ
HORSE CAMP CYN N/A       52  21  29 E11G15            *ARAVAIPA CYN
RINCON MTNS    N/A       45  14  28 SW3               *NR MANNING CAMP
$$

AZZ509>511-211915-
LOCATION       SKY/WX    TMP DP  RH WIND       PRES   REMARKS
SAFFORD        PTSUNNY   57  22  25 SE9       29.98F
STRAY HORSE    N/A       41  21  44 E3                *
TRAIL CABIN    N/A       46  22  39 E5G10             *N OF GRANVILLE
BLACK HILLS    N/A       55  22  27 SW3               *N OF FT THOMAS
DRY LAKE       N/A       46  22  38 SE7G11            *NATANES MTNS
NOON CREEK     N/A       55  20  25 NE5G12            *PINALENO MTNS
COLUMBINE      N/A       36   5  27 SE6G11            *PINALENO MTNS
GUTHRIE        N/A       45  20  36 E8G15             *SW OF GUTHRIE
$$

AZZ502-503-513-211915-
LOCATION       SKY/WX    TMP DP  RH WIND       PRES   REMARKS
NOGALES        CLOUDY    64  17  16 S16G22    29.98F
SELLS          N/A       65  19  17 S7G13             *
SASABE         N/A       62  19  19 SW5               *ALTAR VLY
HOPKINS        N/A       45  13  27 SE5               *SANTA RITA MTNS
CARR CYN       N/A       60  16  18 W4G15             *W OF HEREFORD
$$

AZZ507-508-512-211915-
LOCATION       SKY/WX    TMP DP  RH WIND       PRES   REMARKS
SIERRA VISTA   CLOUDY    61  16  17 SE7       30.00F
DOUGLAS        PTSUNNY   58  24  27 SE5       30.01F
EMPIRE MTNS    N/A       59  16  18 S14G22            *LAS CIENEGAS NCA
MULESHOE RANCH N/A       55  20  25 SE5               *PRESERVE
HEADQUARTERS   N/A       61  18  19 SW3               *CHIRICAHUA MTNS
$$

.............................NOTES.............................
THIS IS AN AUTOMATED COLLECTIVE WITH MINIMAL QUALITY CONTROL.
PIMA CO DEQ SITES HAVE NONSTANDARD WIND SENSOR HEIGHTS.
PIMA CO DEQ SITES DO NOT REPORT WIND GUSTS.
* INDICATES WIND SENSORS LOCATED AT 20 FEET INSTEAD OF 33 FEET.
..............................KEY..............................
SKY/WX - SKY CONDITION/WEATHER
TMP    - TEMPERATURE IN FAHRENHEIT
DP     - DEWPOINT IN FAHRENHEIT
RH     - RELATIVE HUMIDITY IN PERCENT
WIND   - DIRECTION AND SPEED IN MILES PER HOUR (MPH)
VRB    - VARIABLE WIND DIRECTION
PRES   - MEAN SEA LEVEL PRESSURE IN INCHES OF MERCURY
         F - FALLING PRESSURE   R - RISING PRESSURE
         S - STEADY PRESSURE
VSB    - VISIBILITY IN MILES
HX     - HEAT INDEX IN FAHRENHEIT
WCI    - WIND CHILL INDEX IN FAHRENHEIT
N/A    - NOT AVAILABLE
AFB    - AIR FORCE BASE
         DAVIS-MONTHAN IS DAVIS-MONTHAN AIR FORCE BASE
CYN    - CANYON
MTNS   - MOUNTAINS
NCA    - NATIONAL CONSERVATION AREA
NR     - NEAR
VLY    - VALLEY
CONTL  - CONTINENTAL
PIMA CO DEQ - PIMA COUNTY DEPT OF ENVIRONMENTAL QUALITY



USA.gov is the U.S. government's official web portal to all federal, state and local government web resources and services.